Weather in Bolshaya Usa

Russia / Perm Krai     56°44′16″N   55°05′58″E
temp.,
°C
wind,
m/s
gust,
m/s
humid.,
%
clouds,
%
prec.,
mm/h
press.,
hPa
HPBL,
m
3 august, tue
tue323:00+19sw367217 0.1 101388
02:00+19sw2264100 0.1 101220
05:00+19sw1164100 0.1 101311
08:00+22sw256050 0.0 1013150
11:00+28wsw354273 0.0 1012591
14:00+31wsw343429 0.0 10122224
17:00+32wsw24315 0.0 10112464
20:00+28sse22485 0.0 101014
4 august, wed
wed423:00+23sse33502 0.0 101129
02:00+21se335391 0.0 101140
05:00+19s11595 0.1 101111
08:00+23sse125752 0.1 1011114
11:00+27s344531 0.1 1011438
14:00+30wsw2340100 0.0 1010845
17:00+31wnw01385 0.0 10091021
20:00+27ese22555 0.0 100827
5 august, thu
thu523:00+20ssw31068100 0.1 1008179
02:00+20ssw41062100 0.0 1008234
05:00+16wsw3798100 0.0 1009270
08:00+18wnw688177 0.0 1010586
11:00+19wnw797253 0.0 1011771
14:00+23nw8957100 0.0 10111312
17:00+22nw895493 0.0 10121675
20:00+18nnw69709 0.0 1014915
6 august, fri
fri623:00+13nnw411888 0.0 1015366
02:00+12nw312920 0.0 1015303
05:00+11nw311920 0.0 1015251
08:00+14nw510680 0.0 1016418
11:00+19nw78440 0.0 10161281
14:00+21nw67350 0.0 10161672
17:00+21nnw66361 0.0 10161721
20:00+18nnw374942 0.0 1016266
7 august, sat
sat723:00+13nw226863 0.0 101713
02:00+11nw22768 0.0 101812
05:00+10nnw228291 0.0 101820
08:00+13nnw346650 0.0 1019232
11:00+18nnw35465 0.0 10191018
14:00+21nnw564077 0.0 10191421
17:00+20nw5545100 0.0 10201094
20:00+15nw2459100 0.0 1020136